Sarasota, FL

9:57 AM EDT on October 19, 2017 (GMT -0400)
Sarasota-bradenton

Weather History for KSRQ - September, 2013

Change the Weather History Date:

Monday, September 9, 2013

  Actual Average Record
Temperature  
Mean Temperature 85 °F 82 °F  
Max Temperature 93 °F 89 °F 95 °F (1948)
Min Temperature 76 °F 75 °F 63 °F (1927)
Degree Days  
Heating Degree Days 0 0  
Month to date heating degree days 0 0  
Since 1 July heating degree days 0 0  
Cooling Degree Days 20 17  
Month to date cooling degree days 163 153  
Year to date cooling degree days 2663 2450  
Growing Degree Days 34 (Base 50)    
Moisture  
Dew Point 72 °F    
Average Humidity 71    
Maximum Humidity 94    
Minimum Humidity 46    
Precipitation  
Precipitation 0.00 in 0.27 in 3.56 in (1912)
Month to date precipitation 2.55 2.87  
Year to date precipitation 41.16 41.20  
Sea Level Pressure  
Sea Level Pressure 29.96 in    
Wind  
Wind Speed 8 mph (ENE)    
Max Wind Speed 15 mph    
Max Gust Speed 18 mph    
Visibility 10 miles    
Events      
T = Trace of Precipitation, MM = Missing Value Source: NWS Daily Summary

Daily Weather History Graph

Daily Weather History Graph

Search for Another Location

Airport or City:

Trip Planner

Search our weather history database for the weather conditions in past years. The results will help you decide how hot, cold, wet, or windy it might be!

Date:

Astronomy

Sep. 09, 2013 Rise Set
Actual Time 7:12 AM EDT 7:41 PM EDT
Civil Twilight 6:49 AM EDT 8:04 PM EDT
Nautical Twilight 6:21 AM EDT 8:32 PM EDT
Astronomical Twilight 5:54 AM EDT 9:00 PM EDT
Moon 11:06 AM EDT (9/9) 10:25 PM EDT (9/9)
Length of Visible Light 13h 15m
Length of Day
12h 28m
Waxing Crescent, 19% of the Moon is Illuminated
Sep 9
Waxing Crescent
Sep 12
First Quarter
Sep 19
Full
Sep 26
Last Quarter
Oct 4
New

Hourly Weather History & Observations

Time (EDT) Temp. Heat Index Dew Point Humidity Pressure Visibility Wind Dir Wind Speed Gust Speed Precip Events Conditions
12:53 AM 78.1 °F - 72.0 °F 81% 29.96 in 10.0 mi ENE 4.6 mph - N/A   Clear
1:53 AM 77.0 °F - 73.0 °F 88% 29.94 in 10.0 mi East 3.5 mph - N/A   Scattered Clouds
2:53 AM 77.0 °F - 73.0 °F 88% 29.93 in 10.0 mi ENE 6.9 mph - N/A   Clear
3:53 AM 75.9 °F - 73.0 °F 91% 29.92 in 10.0 mi ENE 4.6 mph - N/A   Clear
4:53 AM 75.9 °F - 73.0 °F 91% 29.93 in 10.0 mi ENE 5.8 mph - N/A   Clear
5:53 AM 75.9 °F - 73.0 °F 91% 29.94 in 10.0 mi ENE 6.9 mph - N/A   Clear
6:53 AM 75.9 °F - 73.0 °F 91% 29.95 in 10.0 mi East 5.8 mph - N/A   Clear
7:53 AM 77.0 °F - 73.0 °F 88% 29.96 in 10.0 mi ENE 6.9 mph - N/A   Clear
8:53 AM 80.1 °F 84.5 °F 73.9 °F 81% 29.98 in 10.0 mi ENE 8.1 mph - N/A   Clear
9:53 AM 82.9 °F 89.4 °F 73.9 °F 74% 29.99 in 10.0 mi ENE 8.1 mph - N/A   Clear
10:53 AM 84.0 °F 90.2 °F 73.0 °F 69% 30.01 in 10.0 mi East 10.4 mph - N/A   Partly Cloudy
11:53 AM 88.0 °F 95.6 °F 73.0 °F 61% 30.00 in 10.0 mi ENE 6.9 mph - N/A   Scattered Clouds
12:53 PM 89.1 °F 97.0 °F 73.0 °F 59% 29.99 in 10.0 mi East 6.9 mph - N/A   Scattered Clouds
1:53 PM 90.0 °F 96.4 °F 71.1 °F 54% 29.97 in 10.0 mi ESE 6.9 mph - N/A   Partly Cloudy
2:53 PM 90.0 °F 96.4 °F 71.1 °F 54% 29.95 in 10.0 mi ESE 10.4 mph - N/A   Scattered Clouds
3:53 PM 91.9 °F 98.4 °F 71.1 °F 50% 29.94 in 10.0 mi East 5.8 mph - N/A   Partly Cloudy
4:53 PM 93.0 °F 97.9 °F 69.1 °F 45% 29.92 in 10.0 mi NE 8.1 mph - N/A   Scattered Clouds
5:53 PM 91.0 °F 95.2 °F 68.0 °F 47% 29.92 in 10.0 mi ENE 9.2 mph - N/A   Partly Cloudy
6:53 PM 88.0 °F 92.9 °F 70.0 °F 55% 29.93 in 10.0 mi East 9.2 mph - N/A   Scattered Clouds
7:53 PM 84.9 °F 90.1 °F 71.1 °F 63% 29.95 in 10.0 mi East 6.9 mph - N/A   Clear
8:10 PM 84.2 °F 89.6 °F 71.6 °F 66% 29.95 in 10.0 mi East 6.9 mph - N/A   Scattered Clouds
8:53 PM 84.0 °F 89.0 °F 71.1 °F 65% 29.97 in 10.0 mi East 8.1 mph - N/A   Partly Cloudy
9:53 PM 82.9 °F 87.5 °F 71.1 °F 67% 29.99 in 10.0 mi East 9.2 mph 18.4 mph N/A   Clear
10:53 PM 81.0 °F 85.2 °F 72.0 °F 74% 30.01 in 10.0 mi East 11.5 mph - N/A   Clear
11:53 PM 80.1 °F 83.8 °F 72.0 °F 76% 30.01 in 10.0 mi East 9.2 mph - N/A   Clear